Temp
-0 -0 -1 -1 -0 0 1 1 2 4 5 10 17 16 15 16 17 17 18 18 18 18 17 17 17 17 17 17 17 17 17 17 17 17 16 16 15 15 15 15 15 15 14
-1 -1 -1 -2 -2 -1 -1 -1 0 1 3 5 7 12 16 15 16 17 18 18 18 17 17 17 17 16 16 17 16 17 17 16 17 16 14 12 14 14 14 15 14 15 15
-2 -2 -2 -2 -2 -2 -2 -2 -1 -0 2 2 4 8 15 15 15 15 16 17 17 17 17 17 17 16 16 16 16 16 17 15 16 17 15 11 11 12 14 14 14 14 15
-3 -3 -3 -3 -3 -3 -3 -3 -2 -1 0 1 2 3 5 12 16 15 15 17 17 17 17 17 16 16 15 15 15 16 17 16 14 15 16 16 15 11 12 13 14 14 14
-4 -4 -4 -4 -4 -4 -4 -4 -4 -2 -2 -0 0 1 3 6 10 15 15 15 16 16 16 16 16 16 15 15 15 15 16 16 14 15 15 15 15 15 12 11 13 13 14
-5 -5 -5 -5 -5 -5 -5 -5 -4 -4 -3 -2 -1 0 1 3 5 10 14 14 14 15 15 15 15 15 15 14 15 15 15 15 14 14 15 15 14 14 14 10 12 13 12
-6 -6 -6 -6 -6 -6 -6 -6 -5 -5 -5 -4 -3 -1 -0 1 4 6 13 14 14 14 13 14 13 14 14 15 14 14 14 14 14 14 14 15 15 16 16 15 12 12 12
-7 -7 -7 -7 -7 -7 -6 -6 -6 -6 -5 -5 -3 -2 -1 0 2 5 8 15 14 14 13 13 13 13 13 13 14 14 14 14 14 14 14 15 15 16 16 16 14 10 12
-8 -7 -7 -7 -7 -7 -7 -7 -7 -6 -6 -6 -5 -3 -2 -1 1 3 6 11 15 14 13 13 13 13 13 13 14 14 14 13 14 14 14 14 15 15 16 16 16 14 10
-8 -8 -8 -8 -8 -8 -8 -8 -7 -7 -6 -6 -5 -4 -3 -2 -0 2 5 8 14 14 14 13 13 13 13 13 13 13 13 13 13 14 14 14 14 15 15 15 15 16 15
-9 -8 -8 -8 -8 -8 -8 -8 -8 -7 -7 -6 -6 -5 -4 -2 -1 1 4 6 13 13 14 13 13 13 12 12 12 13 13 13 13 13 14 14 14 15 15 15 15 15 15
-10 -9 -8 -8 -9 -8 -8 -8 -8 -8 -7 -7 -6 -5 -4 -2 -1 0 3 6 11 13 13 13 13 12 12 12 13 13 12 13 13 13 13 14 14 14 14 14 15 15 15
-9 -9 -8 -9 -9 -9 -9 -8 -8 -8 -7 -7 -6 -5 -4 -3 -2 -1 1 5 9 13 13 13 13 12 12 12 12 13 12 12 12 12 13 13 14 14 14 14 14 14 14
-9 -8 -9 -9 -9 -9 -9 -9 -9 -8 -7 -7 -6 -5 -4 -4 -3 -2 0 3 7 11 13 13 13 12 12 12 12 12 12 12 12 12 12 13 13 12 13 14 14 14 14
-8 -9 -9 -9 -9 -9 -9 -9 -9 -8 -8 -7 -6 -5 -5 -4 -3 -2 -0 2 5 10 12 12 12 12 12 12 12 12 12 12 12 12 11 12 13 13 13 13 13 13 13
-9 -9 -9 -9 -10 -10 -9 -9 -9 -8 -8 -7 -7 -5 -5 -4 -3 -2 -1 1 4 8 11 13 14 12 12 12 12 12 12 12 12 11 11 12 12 12 13 13 12 13 12
-10 -10 -10 -10 -10 -10 -10 -10 -9 -9 -8 -8 -7 -6 -5 -5 -4 -2 -1 0 3 7 8 12 13 13 12 12 12 12 12 12 12 12 11 11 12 12 12 11 12 12 12
-10 -10 -10 -10 -10 -10 -10 -10 -9 -9 -9 -8 -7 -6 -5 -5 -4 -3 -2 -1 1 4 7 11 12 12 12 12 12 12 12 11 11 11 12 12 12 12 12 12 11 10 10
-10 -11 -11 -11 -10 -10 -10 -10 -10 -10 -9 -9 -8 -6 -6 -5 -4 -3 -2 -2 -0 2 5 8 11 12 12 13 12 12 11 11 11 11 11 11 12 13 12 11 10 10 10
-11 -11 -11 -11 -11 -11 -11 -10 -10 -10 -10 -9 -8 -7 -6 -6 -5 -4 -3 -2 -2 -1 1 2 4 6 10 11 12 11 11 10 11 11 11 11 13 13 12 11 10 9 10
-11 -11 -12 -12 -11 -11 -11 -11 -11 -11 -10 -9 -8 -7 -6 -6 -5 -4 -4 -3 -2 -2 -1 -0 0 3 3 6 10 11 11 10 10 10 10 11 11 11 11 11 10 10 10
-12 -12 -12 -12 -12 -12 -12 -11 -11 -11 -10 -9 -8 -7 -6 -6 -6 -5 -4 -3 -3 -3 -2 -1 -1 -1 0 1 4 8 10 9 10 10 10 11 11 10 10 10 9 9 9
-12 -13 -13 -13 -12 -12 -12 -11 -12 -11 -11 -10 -8 -7 -7 -7 -6 -6 -4 -3 -3 -3 -3 -2 -2 -2 -1 1 2 4 7 8 9 9 10 10 10 9 9 9 8 8 7
-13 -14 -14 -13 -13 -13 -12 -12 -12 -12 -11 -10 -8 -8 -8 -7 -7 -6 -5 -4 -3 -3 -3 -3 -3 -2 -2 -2 0 2 4 7 8 8 8 9 8 8 8 8 7 7 7
-14 -14 -14 -14 -14 -13 -13 -12 -12 -12 -11 -10 -9 -8 -8 -8 -7 -7 -6 -5 -4 -4 -3 -3 -3 -3 -2 -2 -1 -0 1 3 4 5 5 6 6 5 6 6 6 6 6
-15 -15 -15 -15 -14 -14 -13 -13 -12 -12 -11 -11 -9 -9 -9 -8 -8 -7 -7 -6 -6 -5 -4 -4 -4 -3 -3 -3 -3 -2 -1 -1 1 1 -0 -0 0 0 1 1 2 2 3
Height
848 841 835 828 820 816 809 807 802 798 794 789 789 788 786 789 790 793 795 797 799 803 808 812 817 821 824 828 832 837 841 843 847 850 855 858 861 862 863 864 866 869 871
843 838 835 831 828 823 817 811 807 803 799 796 788 784 782 782 784 787 789 791 793 798 802 807 811 815 820 824 828 832 836 839 843 846 853 858 861 861 863 863 866 868 870
852 845 839 837 832 825 820 814 810 806 800 796 788 780 778 778 779 781 786 787 790 792 797 800 804 811 815 819 823 827 831 835 839 841 847 857 857 857 860 861 863 865 868
862 856 845 838 834 828 822 816 809 804 800 797 792 787 785 776 771 773 778 783 785 787 790 794 798 804 811 814 818 821 824 831 835 838 841 843 845 851 858 859 861 863 865
863 856 851 844 837 831 823 814 808 802 799 794 794 791 785 780 771 766 769 773 777 781 784 787 791 796 800 807 813 816 818 823 828 831 834 840 842 843 847 853 855 859 862
864 858 852 845 836 829 821 814 806 800 794 791 788 783 778 765 768 764 758 764 769 772 775 779 783 789 793 795 804 811 813 816 821 825 829 832 836 838 840 845 850 853 857
864 858 851 843 836 829 823 816 809 799 793 787 784 781 776 774 773 769 754 754 760 763 766 771 777 779 786 786 796 804 808 810 814 817 822 827 832 835 837 838 844 849 853
866 861 854 847 839 831 823 817 810 800 792 785 776 772 771 767 761 753 757 746 750 754 759 763 769 770 776 779 789 795 802 806 808 811 817 822 826 830 833 835 838 846 849
866 861 855 849 841 833 824 816 808 801 792 783 776 768 765 762 755 748 741 744 739 745 749 754 761 767 774 779 781 786 795 800 800 805 810 817 821 826 829 831 833 837 847
866 860 853 845 840 832 824 815 807 800 789 779 771 764 756 753 749 745 737 734 728 732 739 744 751 757 762 769 774 781 788 793 795 798 803 810 814 819 823 825 828 832 836
865 858 851 844 838 830 823 813 805 795 783 771 766 759 750 744 741 734 725 726 713 715 724 734 741 748 754 761 761 773 778 784 789 790 793 802 808 812 817 820 823 827 830
864 857 850 843 836 828 820 811 803 794 783 771 762 754 744 737 731 730 724 717 709 706 712 722 733 740 745 751 757 763 769 775 780 785 787 794 801 805 810 814 816 820 824
862 855 848 843 835 826 817 809 801 792 782 770 759 745 737 734 725 719 713 710 707 706 705 713 720 730 738 743 749 755 761 765 771 775 781 786 793 797 803 806 810 814 818
861 855 849 843 834 826 816 807 796 787 773 764 754 742 735 726 718 715 708 706 702 689 700 705 711 719 729 736 741 747 752 757 762 768 775 778 783 789 793 798 803 807 812
860 855 849 842 834 824 814 804 793 781 770 759 747 737 728 719 717 709 701 698 695 691 687 700 705 711 719 727 733 738 743 747 754 759 765 770 774 782 787 790 794 800 804
861 855 849 842 832 824 814 803 791 779 767 756 746 736 726 721 713 702 697 694 691 687 690 693 696 703 709 715 722 729 734 738 744 750 756 762 769 776 779 783 786 790 795
862 856 850 841 833 824 815 803 790 779 768 758 745 737 727 720 705 698 692 686 681 681 685 683 688 693 699 706 712 719 725 730 735 742 748 754 760 767 771 776 779 783 788
862 856 849 841 833 823 813 802 791 781 770 758 745 735 728 717 706 699 689 681 676 675 674 678 681 685 690 697 704 710 719 724 729 734 739 744 749 756 762 767 773 777 781
863 856 850 842 833 823 813 803 792 782 769 758 748 737 728 717 705 698 688 676 671 670 666 666 672 680 685 688 696 702 707 715 723 728 732 737 741 748 756 761 764 769 773
862 855 848 841 833 823 814 804 794 783 773 763 751 741 731 719 709 699 687 682 679 673 669 671 676 673 677 684 690 694 695 708 716 720 726 733 736 743 750 755 759 762 766
861 855 848 841 834 825 815 806 798 787 777 765 755 744 737 727 714 698 693 685 680 677 673 674 677 671 675 679 684 692 696 702 707 713 720 727 733 738 743 749 751 754 760
861 855 849 841 833 826 817 809 800 791 779 767 758 753 744 734 719 708 698 695 687 681 680 685 684 681 681 679 679 684 691 696 701 707 714 720 727 732 737 742 745 749 753
863 857 851 844 836 828 821 814 805 793 783 774 765 756 748 737 726 717 714 709 705 698 690 691 687 681 680 680 683 682 687 694 699 703 707 714 721 727 732 735 740 744 747
865 859 852 846 838 831 826 818 805 795 786 776 769 760 752 743 733 726 722 716 711 705 698 694 696 691 691 693 688 682 684 691 696 701 705 711 717 722 726 730 734 737 740
866 861 856 849 842 835 827 818 809 800 791 783 775 764 759 747 743 738 736 730 727 724 717 713 709 707 704 700 697 692 692 692 694 698 703 708 711 717 721 725 728 732 736
866 861 856 851 844 836 828 820 813 806 798 788 780 775 768 762 756 752 745 739 738 731 724 721 718 717 715 709 705 701 700 700 699 701 707 711 713 715 720 723 727 731 733
Wind_Speed
20 27 32 37 41 43 45 43 42 42 39 31 23 27 32 37 40 40 35 39 37 36 34 34 35 35 37 33 32 30 25 23 25 23 15 12 11 13 14 22 25 23 21
21 30 34 35 37 35 39 39 38 39 40 34 37 29 27 35 41 42 39 40 40 39 38 38 38 38 38 35 34 35 29 21 29 20 14 2 4 10 10 19 23 22 22
20 24 32 33 34 36 37 37 35 37 39 36 39 31 22 28 30 36 38 37 40 42 42 41 40 40 38 40 37 37 36 22 29 28 11 3 4 5 10 13 21 21 23
14 23 31 33 33 34 36 35 40 36 33 39 36 34 27 24 29 30 37 42 38 42 43 42 41 40 38 37 39 39 37 31 26 27 25 11 10 3 3 13 19 20 24
15 17 26 31 32 33 34 37 37 38 34 37 32 27 29 30 29 29 34 40 42 41 41 40 42 43 40 40 39 38 40 40 31 28 27 18 13 11 4 4 12 19 22
15 21 26 28 33 35 35 37 37 37 39 36 33 32 31 34 32 25 33 33 36 41 45 43 43 42 41 42 43 42 40 40 32 33 33 25 13 9 6 3 12 17 20
14 16 25 30 32 35 36 35 36 38 37 37 33 30 30 31 28 35 27 31 33 36 40 46 40 41 42 42 43 42 40 41 38 39 35 37 28 19 14 9 7 5 8
13 15 24 28 30 34 36 36 35 36 37 34 37 35 28 30 33 33 38 38 36 37 38 42 46 45 40 40 44 43 40 40 40 38 34 35 36 25 22 12 12 2 3
14 15 25 26 29 32 35 36 37 35 33 36 32 35 31 27 31 38 35 39 39 36 40 46 43 46 43 39 41 40 41 39 43 41 39 36 37 35 27 22 19 12 4
15 16 23 27 30 30 32 34 36 35 34 33 32 30 34 33 31 36 38 39 39 39 39 42 43 38 40 40 41 39 42 38 38 42 37 38 36 38 37 33 23 22 19
13 14 24 28 30 30 32 33 35 37 37 34 32 31 33 33 30 34 39 37 30 46 43 41 38 40 42 45 41 39 37 39 36 36 41 39 37 35 34 32 30 28 25
9 19 24 28 30 31 32 33 35 35 35 34 33 31 30 30 31 30 35 37 27 34 43 44 43 37 40 39 42 38 37 39 36 34 34 37 35 35 35 32 32 33 32
13 17 24 26 29 31 33 34 35 35 34 32 32 31 29 29 28 32 31 37 37 41 35 40 43 40 38 40 41 42 38 39 35 33 35 36 37 34 37 37 35 33 33
13 14 19 26 29 31 33 35 37 37 34 34 31 29 29 30 30 31 31 31 35 21 37 39 41 41 40 39 40 40 40 40 40 41 41 39 38 38 40 39 39 36 33
16 16 16 25 29 32 34 36 37 37 36 34 33 31 32 30 28 28 25 29 30 38 29 38 38 40 40 41 40 41 40 39 39 39 40 41 41 44 42 41 39 36 33
16 17 23 27 29 32 34 37 37 38 38 34 32 32 32 30 26 25 22 23 26 26 32 43 42 38 39 42 47 42 40 38 37 35 38 38 43 44 41 40 39 41 36
15 16 22 26 30 33 34 35 37 37 35 32 33 33 32 29 28 26 17 12 14 23 30 35 39 39 40 42 48 49 38 38 37 36 36 37 40 39 37 35 35 37 36
14 19 24 28 31 32 35 37 36 35 34 32 34 36 34 30 27 23 17 7 2 9 18 29 37 38 39 37 50 50 41 36 36 37 39 39 38 37 35 33 34 35 34
19 23 25 28 29 31 36 35 35 35 35 36 36 38 35 31 30 24 22 19 12 3 2 9 25 33 34 40 42 47 34 33 33 34 35 35 36 34 34 34 33 34 34
20 23 28 28 28 33 36 33 34 34 36 37 37 37 35 32 30 29 27 23 19 17 15 14 9 18 25 36 38 37 32 29 30 33 33 33 32 32 31 34 33 29 32
23 25 26 25 28 32 34 32 32 35 39 39 35 38 35 31 31 32 33 30 26 24 29 31 24 17 16 10 31 33 33 29 26 28 29 29 27 27 28 31 34 33 32
24 25 25 27 29 31 32 32 32 38 39 39 34 34 32 33 34 33 34 34 30 29 27 23 25 25 19 18 12 24 29 31 31 29 31 32 30 29 29 29 29 28 27
22 24 25 26 28 31 31 31 35 38 38 36 33 34 32 35 36 32 31 30 29 26 26 23 23 27 32 25 17 11 23 25 29 32 31 30 28 28 28 28 27 26 25
21 23 24 25 27 31 30 31 35 38 36 35 32 33 33 34 36 34 32 31 31 29 29 28 26 25 26 28 23 18 8 19 23 24 23 22 24 28 29 27 25 28 27
21 21 21 23 26 29 30 33 35 36 35 33 30 32 33 34 33 32 30 31 34 34 28 28 26 25 25 30 24 27 19 13 16 21 20 22 24 22 23 23 23 24 25
22 22 22 23 26 29 30 34 36 34 32 32 27 30 31 30 30 28 29 31 31 34 37 37 36 31 33 31 33 32 30 25 21 27 21 19 17 20 18 20 17 15 16
Wind_Direction
348 357 358 356 354 354 352 353 352 348 354 352 249 221 214 216 216 212 212 210 207 202 202 203 203 201 202 191 187 192 191 190 191 172 169 156 146 178 185 174 178 180 183
358 355 355 356 354 349 349 348 345 343 341 342 328 312 221 218 220 217 213 212 207 203 202 206 204 200 200 195 192 191 190 190 193 168 154 123 189 181 172 200 192 187 189
352 349 350 351 349 347 345 341 339 336 335 335 334 337 269 224 213 214 216 209 209 205 205 208 208 205 205 198 195 194 195 190 188 192 167 138 207 148 196 185 200 195 195
354 347 344 345 345 341 338 338 336 334 331 329 330 327 308 292 220 209 212 212 209 206 206 209 208 209 209 200 198 198 201 195 187 187 196 195 154 163 169 205 204 198 197
348 344 343 339 338 339 337 335 333 331 328 324 325 324 314 301 319 210 208 212 210 210 201 204 208 207 204 203 202 199 200 201 194 192 190 191 192 183 147 174 195 210 210
343 341 340 340 337 338 338 335 332 328 327 325 321 319 317 320 308 297 198 204 208 209 209 203 203 204 201 200 206 207 201 200 200 198 202 197 187 187 166 128 183 195 213
342 340 341 340 338 336 335 333 328 324 324 321 317 313 308 304 285 273 256 203 205 203 202 201 199 197 199 203 207 207 206 204 202 201 202 208 209 201 187 159 157 155 197
340 337 336 335 334 332 330 329 326 320 320 318 314 311 306 301 296 293 282 219 208 207 202 201 203 205 206 200 202 203 206 205 205 205 205 210 215 211 200 169 159 104 171
336 333 333 332 330 330 327 325 322 318 316 314 312 308 302 297 292 287 276 266 208 204 203 208 204 202 201 202 201 200 205 205 207 209 213 217 219 218 218 206 197 169 174
330 331 332 331 326 326 325 323 319 315 314 314 311 306 301 296 291 285 278 289 207 200 200 203 203 201 199 199 200 199 204 204 205 208 210 218 223 223 223 227 223 220 205
323 329 330 329 324 327 327 324 321 317 316 318 314 308 304 299 293 284 277 271 241 192 194 200 198 200 201 200 198 200 199 202 208 204 207 217 220 219 218 219 216 216 213
317 328 329 329 325 329 328 326 321 316 314 315 313 308 308 304 294 282 272 271 266 204 192 196 199 197 199 197 198 198 199 200 204 205 203 211 213 213 214 213 213 214 218
331 335 335 331 327 327 329 326 322 317 313 319 316 316 315 303 297 288 279 266 254 216 194 194 194 200 202 200 201 200 199 200 201 201 203 207 210 208 212 212 216 213 219
336 335 334 329 330 327 329 326 324 321 322 323 322 319 317 312 304 289 276 264 249 241 203 199 197 199 204 205 203 202 201 201 203 210 213 211 211 214 213 212 217 218 218
341 337 332 330 330 329 330 329 325 326 327 326 329 325 325 320 307 294 281 263 248 231 217 201 197 197 200 206 206 203 203 202 203 206 209 212 218 221 219 214 214 218 217
336 334 332 329 332 330 330 328 328 329 330 330 330 332 329 318 317 311 284 261 244 230 224 212 203 197 201 204 204 202 201 198 197 200 210 214 220 225 225 228 228 230 218
332 333 329 330 330 329 331 330 329 331 332 332 337 338 333 323 337 326 299 271 241 236 234 206 201 197 202 205 207 205 200 199 200 201 201 205 217 225 226 227 231 235 235
331 332 329 330 330 330 335 335 336 336 335 337 343 344 336 335 342 337 331 331 247 233 222 218 206 198 199 206 204 206 200 198 199 202 203 206 214 220 222 222 222 226 228
329 329 332 329 331 337 338 339 339 339 343 342 342 346 341 338 349 351 351 19 33 55 131 226 204 199 194 197 201 198 192 193 202 205 207 208 212 215 215 218 215 219 228
333 333 337 334 339 341 341 342 342 342 343 339 340 349 346 347 353 4 7 21 35 51 82 82 128 143 176 190 195 200 185 187 194 204 213 217 219 219 222 220 219 213 224
338 342 340 338 339 342 343 346 343 344 338 340 349 355 351 356 360 13 19 20 29 39 56 62 53 97 85 147 191 198 197 194 190 196 203 210 216 222 223 223 225 226 234
344 345 341 339 340 346 347 345 345 342 343 346 353 357 356 2 8 18 21 21 24 32 40 47 43 41 51 55 109 186 203 200 195 199 213 220 218 224 226 224 227 230 233
344 344 341 338 343 347 349 345 343 346 344 348 353 1 360 9 12 14 18 25 28 32 37 35 36 28 31 43 51 99 191 202 203 211 217 224 220 218 220 220 220 218 218
347 343 342 343 342 346 346 348 349 350 348 350 355 3 2 10 14 14 20 25 26 24 31 31 29 27 28 31 40 54 121 195 204 215 215 218 213 209 211 210 213 212 213
343 345 342 341 340 343 346 352 354 353 350 352 359 4 1 9 9 14 19 27 30 34 37 36 34 34 32 33 43 52 62 110 143 164 163 175 176 176 185 189 190 197 199
344 343 344 343 342 348 348 355 359 357 353 354 1 4 3 7 10 11 13 27 29 32 37 39 41 38 46 46 49 54 61 68 99 95 81 81 100 114 129 138 140 160 173